This demonstration page uses our WeatherBlox Daily Observations layout. Learn more.

Left ArrowRight Arrow

36.17497, -115.13722

Hourly Observations for September 19, 2017

Temp ( °F °C ) Dew Point ( °F °C ) Humidity (%) Winds ( mph kmh ) Pressure ( in mb ) Visibility ( mi km ) Precip ( " mm )
12:53 am 00:53 Clear 80 26.7 35 1.7 20 20 S 17 28 29.71 1006 10 16 0.00 0.00
1:53 am 01:53 Clear 80 26.7 31 -0.6 17 17 SSW 16 26 29.70 1006 10 16 0.00 0.00
2:53 am 02:53 Clear 78 25.6 32 0 19 19 SSW 18 30 29.69 1006 10 16 0.00 0.00
3:53 am 03:53 Clear 76 24.4 34 1.1 22 22 S 17 28 29.68 1005 10 16 0.00 0.00
4:53 am 04:53 Clear 76 24.4 34 1.1 22 22 S 23 37 29.67 1005 10 16 0.00 0.00
5:53 am 05:53 Clear 75 23.9 34 1.1 22 22 SSW 14 22 29.70 1006 10 16 0.00 0.00
6:53 am 06:53 Sunny 74 23.3 34 1.1 23 23 SW 5 7 29.73 1007 10 16 0.00 0.00
7:53 am 07:53 Sunny 74 23.3 35 1.7 24 24 SW 8 13 29.75 1008 10 16 0.00 0.00
8:53 am 08:53 Sunny 77 25 38 3.3 24 24 SW 10 17 29.77 1008 10 16 0.00 0.00
9:53 am 09:53 Sunny 79 26.1 38 3.3 23 23 SW 8 13 29.79 1009 10 16 0.00 0.00
10:53 am 10:53 Sunny 81 27.2 38 3.3 21 21 SW 7 11 29.78 1009 10 16 0.00 0.00
11:53 am 11:53 Sunny 83 28.3 38 3.3 20 20 S 7 11 29.76 1008 10 16 0.00 0.00
12:53 pm 12:53 Sunny 86 30 38 3.3 18 18 SE 9 15 29.74 1007 10 16 0.00 0.00
1:53 pm 13:53 Sunny 88 31.1 40 4.4 18 18 S 14 22 29.70 1006 10 16 0.00 0.00
2:53 pm 14:53 Sunny 89 31.7 41 5 19 19 S 20 31 29.69 1005 10 16 0.00 0.00
3:53 pm 15:53 Sunny 89 31.7 40 4.4 18 18 S 13 20 29.67 1005 10 16 0.00 0.00
4:53 pm 16:53 Sunny 88 31.1 40 4.4 18 18 SSW 13 20 29.67 1005 10 16 0.00 0.00
5:53 pm 17:53 Sunny 88 31.1 40 4.4 18 18 SSW 12 19 29.67 1005 10 16 0.00 0.00
6:53 pm 18:53 Clear 86 30 40 4.4 20 20 SSW 10 17 29.67 1005 10 16 0.00 0.00
7:53 pm 19:53 Clear 84 28.9 41 5 22 22 S 8 13 29.69 1005 10 16 0.00 0.00
8:53 pm 20:53 Clear 83 28.3 40 4.4 22 22 SSW 10 17 29.70 1006 10 16 0.00 0.00
9:53 pm 21:53 Clear 82 27.8 38 3.3 21 21 SSW 6 9 29.71 1006 10 16 0.00 0.00
10:53 pm 22:53 Clear 80 26.7 38 3.3 22 22 S 7 11 29.72 1006 10 16 0.00 0.00
11:53 pm 23:53 Clear 79 26.1 39 3.9 24 24 S 14 22 29.72 1007 10 16 0.00 0.00

Powered by AerisWeather